[[{"header":{"parameterUnit":"m.s-1","parameterCategory":1,"la1":30.2991,"la2":30.254,"lo1":-89.0895,"lo2":-89.0444,"dy":0.0017,"dx":0.0017,"nx":28,"ny":28,"refTime":"2024-03-24T09:00:00:Z","depth":0,"parameterNumber":2,"parameterNumberName":"U-component_of_WINDS"},"data":[0,0,0,0,0,0,0,0,0,0,0,0,0,0,0,0,0,0,0,0,0,0,0,0,0,0,0,0,0,0,0,0,0,0,0,0,0,0,0,0,0,0,0,0,0,0,0,0,0,0,0,0,0,0,0,0,0,0,-5.0179,-5.0179,0,-5.0225,-5.0226,-5.0226,-5.0164,-5.0162,-5.0159,-5.0157,-5.0205,-5.0208,-5.0211,0,0,0,0,0,0,0,0,0,0,0,0,0,-5.0038,-5.0041,-5.0179,-5.0179,-5.018,-5.0225,-5.0226,-5.0226,-5.0164,-5.0162,-5.0159,-5.0156,-5.0204,-5.0208,-5.0212,0,0,0,0,0,0,0,0,0,0,0,0,0,-5.0093,-5.0042,-5.0178,-5.0154,-5.0153,-5.0225,-5.0226,-5.0226,-5.0165,-5.0162,-5.0158,-5.0155,-5.0202,-5.0207,-5.0212,-5.031,0,0,-5.0228,-5.023,0,0,0,0,0,0,0,0,-5.009,-5.0098,-5.0157,-5.0156,-5.0154,-5.0185,-5.0193,-5.0255,-5.0166,-5.016,-5.0157,-5.0153,-5.0201,-5.0206,-5.0222,-5.0313,-5.0315,-5.0228,-5.0231,-5.0233,-5.0235,0,0,0,0,0,0,0,-5.0086,-5.0096,-5.0197,-5.0158,-5.0156,-5.0142,-5.0146,-5.0205,-5.0199,-5.016,-5.0156,-5.0162,-5.02,-5.0217,-5.0223,-5.0315,-5.0228,-5.0232,-5.0236,-5.0237,-5.049,-5.0493,0,0,0,0,0,0,-5.0085,-5.0093,-5.0195,-5.0198,-5.0113,-5.0147,-5.0152,-5.0179,-5.0198,-5.0198,-5.0165,-5.0159,-5.021,-5.0217,-5.0224,-5.034,-5.0233,-5.0238,-5.0241,-5.0486,-5.0491,-5.0494,0,0,0,0,0,0,-5.0082,-5.0095,-5.0194,-5.0145,-5.0156,-5.0153,-5.0184,-5.0181,-5.0199,-5.0202,-5.02,-5.0184,-5.0208,-5.0217,-5.029,-5.034,-5.024,-5.0245,-5.0482,-5.0487,-5.0493,-5.0572,0,0,0,0,0,0,-5.0079,-5.0094,-5.0131,-5.0146,-5.0159,-5.0258,-5.0187,-5.0185,-5.0208,-5.0201,-5.0219,-5.0219,-5.0206,-5.0282,-5.0295,-5.0345,-5.0249,-5.0477,-5.0484,-5.0491,-5.0564,-5.0579,-5.0592,0,0,0,0,0,-5.0074,-5.0151,-5.0133,-5.0146,-5.0205,-5.0261,-5.0268,-5.0252,-5.0212,-5.0249,-5.0251,-5.0218,-5.0334,-5.029,-5.0304,-5.0357,-5.0474,-5.0482,-5.049,-5.0558,-5.0576,-5.0592,0,0,0,0,0,0,-5.0141,-5.0153,-5.0132,-5.0217,-5.0239,-5.025,-5.0296,-5.0271,-5.0304,-5.0296,-5.0275,-5.0279,-5.0357,-5.0365,-5.0316,-5.0453,-5.0397,-5.0409,-5.0444,-5.0462,-5.0475,-5.047,-5.0253,0,0,0,0,0,-5.0166,-5.0211,-5.0219,-5.0293,-5.0304,-5.0299,-5.0323,-5.0309,-5.033,-5.0338,-5.0346,-5.0368,-5.0409,-5.0436,-5.0474,-5.0567,-5.057,-5.061,-5.0624,-5.0635,-5.0644,-5.0694,-5.0711,-5.0522,-5.0522,-5.0522,0,0,-5.0218,-5.023,-5.0259,-5.0306,-5.0321,-5.0368,-5.0307,-5.0359,-5.0393,-5.0346,-5.0414,-5.0422,-5.0445,-5.0528,-5.0565,-5.0536,-5.0698,-5.0646,-5.0655,-5.0658,-5.0704,-5.0722,-5.0738,-5.0527,-5.0526,-5.0525,0,0,-5.0335,-5.0349,-5.0411,-5.0428,-5.0452,-5.0448,-5.0464,-5.048,-5.0483,-5.0552,-5.0518,-5.0559,-5.0631,-5.0649,-5.0667,-5.0795,-5.0766,-5.0809,-5.0879,-5.0927,-5.0942,-5.0955,-5.0999,-5.1015,-5.0818,-5.0818,-5.0819,0,-5.0395,-5.0464,-5.0447,-5.0501,-5.0523,-5.0485,-5.0549,-5.0566,-5.0601,-5.0618,-5.0586,-5.0676,-5.0689,-5.0775,-5.0807,-5.0824,-5.084,-5.0804,-5.0941,-5.0954,-5.0966,-5.1008,-5.1025,-5.0823,-5.0823,-5.0822,-5.0822,0,-5.0536,-5.0585,-5.0633,-5.0668,-5.0696,-5.0755,-5.0748,-5.0779,-5.0764,-5.0764,-5.0835,-5.085,-5.089,-5.0911,-5.0896,-5.0996,-5.0977,-5.0945,-5.0887,-5.0989,-5.1028,-5.1044,-5.083,-5.0828,-5.0827,-5.0826,0,0,-5.0693,-5.072,-5.0738,-5.0754,-5.0779,-5.0816,-5.0875,-5.0915,-5.0941,-5.0968,-5.1016,-5.1079,-5.1049,-5.107,-5.1058,-5.1101,-5.12,-5.1062,-5.1063,-5.1085,-5.1309,-5.1332,-5.1351,-5.1182,-5.1185,-5.1188,-5.1307,0,-5.0808,-5.0907,-5.0896,-5.0991,-5.1036,-5.1002,-5.1053,-5.1074,-5.1077,-5.1115,-5.1119,-5.1163,-5.1121,-5.1133,-5.1175,-5.1179,-5.1244,-5.1171,-5.1225,-5.1227,-5.1217,-5.1371,-5.1394,-5.1506,-5.1322,-5.1325,-5.1326,0,-5.0954,-5.0987,-5.1087,-5.1106,-5.1124,-5.117,-5.1206,-5.1244,-5.1269,-5.1268,-5.1293,-5.1274,-5.1333,-5.1278,-5.1359,-5.1309,-5.1332,-5.1338,-5.1342,-5.1343,-5.1281,-5.1374,-5.1541,-5.1557,-5.1351,-5.1349,-5.1347,0,-5.1056,-5.1125,-5.1194,-5.1209,-5.1234,-5.1266,-5.1279,-5.13,-5.1325,-5.1358,-5.1374,-5.1414,-5.1434,-5.1466,-5.1458,-5.1419,-5.1541,-5.1485,-5.1541,-5.1541,-5.1564,-5.1562,-5.1734,-5.1585,-5.1585,-5.1584,-5.1584,0,-5.1184,-5.1246,-5.124,-5.1281,-5.135,-5.1338,-5.1406,-5.1414,-5.1434,-5.1477,-5.1452,-5.1493,-5.1482,-5.1523,-5.1518,-5.1586,-5.1596,-5.1596,-5.1594,-5.1597,-5.1596,-5.1608,-5.1599,-5.1589,-5.1588,-5.1587,-5.1586,0,-5.1307,-5.1305,-5.1378,-5.1396,-5.1403,-5.1452,-5.1468,-5.1508,-5.1511,-5.1566,-5.1578,-5.1581,-5.1629,-5.1625,-5.1679,-5.1676,-5.1758,-5.1748,-5.1749,-5.1746,-5.1801,-5.1795,-5.1984,-5.2007,-5.1846,-5.1847,-5.1848,0,-5.1386,-5.1433,-5.1458,-5.1485,-5.1499,-5.1544,-5.157,-5.156,-5.1589,-5.1622,-5.1657,-5.1703,-5.1738,-5.1816,-5.1823,-5.1864,-5.1853,-5.1916,-5.1858,-5.186,-5.1851,-5.1847,-5.1851,-5.1926,-5.1928,-5.193,-5.1931,0,-5.1528,-5.1526,-5.1564,-5.1603,-5.1635,-5.1666,-5.1693,-5.1717,-5.1711,-5.1744,-5.1793,-5.182,-5.1876,-5.1921,-5.196,-5.1973,-5.1951,-5.195,-5.1964,-5.1966,-5.1964,-5.1964,-5.1777,-5.1944,-5.1943,-5.1942,-5.1941,-5.1941,-5.163,-5.167,-5.1694,-5.1738,-5.1758,-5.1785,-5.1823,-5.1831,-5.1871,-5.1915,-5.1908,-5.1962,-5.1988,-5.2039,-5.2056,-5.2098,-5.2075,-5.2097,-5.2102,-5.2107,-5.2112,-5.1961,-5.2106,-5.2106,-5.2105,-5.2105,-5.2105,0,-5.1768,-5.1782,-5.1823,-5.1863,-5.1898,-5.1876,-5.1907,-5.1937,-5.1985,-5.2011,-5.2046,-5.2102,-5.2147,-5.2159,-5.2202,-5.2234,-5.2225,-5.2245,-5.2241,-5.2244,-5.2131,-5.2113,-5.2252,-5.2252,-5.2252,-5.2251,-5.2251,-5.2251,-5.1843,-5.191,-5.1911,-5.1988,-5.2002,-5.2054,-5.2074,-5.2099,-5.2119,-5.2183,-5.2219,-5.2228,-5.2248,-5.2293,-5.2333,-5.2335,-5.2351,-5.2375,-5.2374,-5.2267,-5.2252,-5.2238,-5.222,-5.238,-5.238,-5.2483,-5.2484,-5.2484]},{"header":{"parameterUnit":"m.s-1","parameterCategory":1,"la1":30.2991,"la2":30.254,"lo1":-89.0895,"lo2":-89.0444,"dy":0.0017,"dx":0.0017,"nx":28,"ny":28,"refTime":"2024-03-24T09:00:00:Z","depth":0,"parameterNumber":3,"parameterNumberName":"V-component_of_WINDS"},"data":[0,0,0,0,0,0,0,0,0,0,0,0,0,0,0,0,0,0,0,0,0,0,0,0,0,0,0,0,0,0,0,0,0,0,0,0,0,0,0,0,0,0,0,0,0,0,0,0,0,0,0,0,0,0,0,0,0,0,3.5619,3.562,0,3.5647,3.5647,3.5648,3.5689,3.569,3.569,3.5691,3.5714,3.5714,3.5714,0,0,0,0,0,0,0,0,0,0,0,0,0,3.5599,3.5599,3.5619,3.562,3.562,3.5647,3.5647,3.5648,3.5689,3.569,3.5691,3.5691,3.5714,3.5714,3.5714,0,0,0,0,0,0,0,0,0,0,0,0,0,3.5615,3.5599,3.5619,3.5644,3.5646,3.5647,3.5647,3.5648,3.5689,3.569,3.5691,3.5692,3.5714,3.5714,3.5714,3.5691,0,0,3.5713,3.5713,0,0,0,0,0,0,0,0,3.5614,3.5616,3.564,3.5642,3.5645,3.5666,3.5649,3.5662,3.5688,3.5672,3.5691,3.5692,3.5697,3.5698,3.5701,3.5692,3.5693,3.5713,3.5713,3.5713,3.5713,0,0,0,0,0,0,0,3.5613,3.5615,3.563,3.564,3.5643,3.5652,3.5656,3.5651,3.5678,3.5674,3.5677,3.568,3.5698,3.5701,3.5701,3.5693,3.5713,3.5713,3.5713,3.5713,3.5669,3.5668,0,0,0,0,0,0,3.5609,3.5613,3.5629,3.5631,3.5632,3.5652,3.5656,3.5658,3.5678,3.5682,3.5679,3.5682,3.57,3.5702,3.5702,3.5678,3.5713,3.5713,3.5713,3.567,3.5668,3.5667,0,0,0,0,0,0,3.5608,3.561,3.5628,3.5623,3.5626,3.5651,3.5653,3.5658,3.566,3.5682,3.5686,3.5677,3.5701,3.5703,3.5694,3.5679,3.5713,3.5713,3.5671,3.5669,3.5668,3.5628,0,0,0,0,0,0,3.5607,3.5609,3.5601,3.5623,3.5626,3.562,3.5652,3.5658,3.5661,3.5665,3.5681,3.5685,3.5702,3.5694,3.5694,3.568,3.5713,3.5673,3.567,3.5668,3.5631,3.5626,3.5621,0,0,0,0,0,3.5606,3.5588,3.5601,3.5602,3.5617,3.5619,3.5621,3.5643,3.5659,3.5651,3.5666,3.5684,3.5681,3.5693,3.5693,3.5679,3.5674,3.5671,3.5669,3.5633,3.5627,3.5621,0,0,0,0,0,0,3.5561,3.5591,3.5606,3.5594,3.5604,3.5626,3.5617,3.5635,3.564,3.5643,3.5669,3.5672,3.566,3.5669,3.5681,3.5658,3.568,3.5678,3.5653,3.5647,3.5642,3.564,3.5713,0,0,0,0,0,3.5551,3.5551,3.5576,3.5563,3.5568,3.5591,3.5593,3.561,3.5621,3.5625,3.5638,3.5647,3.5648,3.5648,3.565,3.5633,3.5637,3.5623,3.5618,3.5613,3.5611,3.5603,3.5598,3.5659,3.5659,3.5659,0,0,3.5527,3.5543,3.5542,3.5554,3.5565,3.5564,3.5595,3.5592,3.5592,3.5623,3.5617,3.5628,3.5639,3.5626,3.5621,3.5633,3.5595,3.561,3.5607,3.5606,3.56,3.5594,3.5589,3.5657,3.5658,3.5658,0,0,3.5485,3.5497,3.5488,3.5498,3.5514,3.553,3.5528,3.5548,3.5557,3.5552,3.5576,3.5575,3.5576,3.5584,3.5588,3.5551,3.5568,3.5551,3.5524,3.5516,3.5511,3.5507,3.5494,3.5489,3.5548,3.5548,3.5548,0,3.5453,3.5455,3.5481,3.5478,3.5483,3.5514,3.5505,3.5513,3.5527,3.553,3.5543,3.5547,3.5556,3.5547,3.5538,3.554,3.5538,3.5549,3.551,3.5506,3.5503,3.5491,3.5486,3.5546,3.5546,3.5546,3.5546,0,3.5416,3.5416,3.5407,3.5423,3.5427,3.5421,3.5445,3.5446,3.5462,3.5477,3.5471,3.5485,3.5491,3.549,3.5504,3.5482,3.5489,3.5506,3.5528,3.5494,3.5484,3.5479,3.5542,3.5543,3.5544,3.5545,0,0,3.5344,3.5377,3.5373,3.5382,3.5402,3.5402,3.5398,3.5406,3.5406,3.5415,3.5412,3.5414,3.543,3.5434,3.5451,3.5444,3.5415,3.5462,3.5462,3.5453,3.5392,3.538,3.5374,3.5427,3.5426,3.5425,3.5391,0,3.5306,3.5302,3.5326,3.5314,3.5316,3.5346,3.5342,3.5354,3.5368,3.537,3.5384,3.5386,3.5407,3.541,3.5405,3.5419,3.5403,3.5422,3.5423,3.5423,3.542,3.5369,3.5355,3.5322,3.5387,3.5387,3.5386,0,3.5261,3.527,3.526,3.5283,3.5284,3.528,3.5291,3.5292,3.5306,3.5317,3.5323,3.5343,3.5339,3.5361,3.5356,3.5369,3.5371,3.5378,3.5378,3.5379,3.5402,3.5368,3.5312,3.5307,3.538,3.538,3.5381,0,3.5211,3.5221,3.5217,3.5223,3.5249,3.5246,3.5256,3.5272,3.5275,3.5284,3.5287,3.5294,3.5297,3.5302,3.5323,3.5337,3.5316,3.5339,3.5324,3.5324,3.5318,3.5318,3.5262,3.5319,3.5319,3.5319,3.5319,0,3.5166,3.5158,3.5195,3.5192,3.5185,3.5212,3.5204,3.5217,3.5231,3.5231,3.5257,3.5255,3.5283,3.5285,3.5301,3.5295,3.5296,3.5304,3.5309,3.5302,3.5301,3.5304,3.5307,3.5318,3.5318,3.5318,3.5319,0,3.5109,3.5133,3.513,3.5157,3.5163,3.5156,3.5178,3.5176,3.5193,3.5192,3.5193,3.5218,3.5222,3.5243,3.5251,3.5262,3.525,3.5259,3.5246,3.5249,3.5233,3.5235,3.5177,3.5171,3.5231,3.523,3.523,0,3.5079,3.5074,3.5101,3.5104,3.5114,3.5117,3.5122,3.5149,3.5153,3.517,3.5166,3.5172,3.5179,3.5183,3.5201,3.5207,3.5216,3.5196,3.5217,3.5212,3.5217,3.5217,3.5217,3.5191,3.519,3.5189,3.5189,0,3.5023,3.5036,3.5043,3.5055,3.506,3.507,3.5081,3.5082,3.5112,3.5115,3.512,3.5125,3.5135,3.5141,3.5151,3.516,3.5179,3.5182,3.5179,3.5173,3.5166,3.517,3.5234,3.5183,3.5184,3.5184,3.5185,3.5185,3.4979,3.4977,3.4996,3.5004,3.5016,3.5026,3.5026,3.5043,3.5049,3.506,3.5075,3.5079,3.5094,3.511,3.5118,3.512,3.5131,3.5126,3.5125,3.5124,3.5121,3.5166,3.5122,3.5122,3.5122,3.5122,3.5123,0,3.4926,3.494,3.4947,3.4963,3.4969,3.4989,3.5002,3.5006,3.5009,3.5022,3.5029,3.5035,3.5042,3.5061,3.5069,3.5067,3.5076,3.5068,3.5069,3.5071,3.511,3.5113,3.5061,3.5061,3.5061,3.5061,3.5061,3.5061,3.4899,3.4897,3.4912,3.4917,3.493,3.4936,3.4942,3.4952,3.4963,3.497,3.4976,3.4989,3.5005,3.5015,3.5021,3.5027,3.5028,3.5018,3.5026,3.5062,3.5068,3.5074,3.5076,3.5018,3.5018,3.4987,3.4986,3.4986]}]]